Starlink 32439

operational
NORAD ID: 61665 Int'l Des: 2024-193 Owner: SPXS Country: US Constellation: starlink
LEOCIRCULAR

关于 Starlink 32439

正在加载描述...

实时位置

正在加载3D地球...

即将过境

高度历史

Altitude vs Time

uPlot chart will show altitude changes over time

两行轨道根数

1 61665U 24193E 25306.46719791 -.00002461 00000-0 -71091-4 0 9990
2 61665 53.1598 322.2710 0000786 98.9074 261.2016 15.30165401 57042
Epoch: Nov 2, 2025 • Age: 26 hours

当前状态

高度 485.6 km
速度 7.62 km/s
星下点 -31.66°S, 41.46°E
发射日期 Oct 26, 2024
运行时间 1 years
类型 internet

技术详情

分类 Payload
质量 730.00 kg
干质量 700.00 kg
总质量 730.00 kg
长度 0.30 m
直径 4.10 m
跨度 29.00 m
形状 Box + pan
制造商 SPXS
平台类型 Starlink V2M
阶段状态 In Orbit
所有者/国家 SPXS/US

大型星座

Loading constellations...